BRX1281 EKCH-EKBI

Flight info

Callsign BRX1281
Flight time 0h 36m
Altitude 14000
Route ODDON1C ODDON DCT LOKSA DCT
Aircraft AT76/M-SDFGIRY/S

Departure

Time 2026-05-05 10:52
Airport Copenhagen Kastrup Airport (EKCH)

Arrival

Time 2026-05-05 11:28
Airport Billund Airport (EKBI)
Time Latitude Longitude Altitude Speed Heading
2026-05-05 10:28 55.62828 12.63299 20 ft 0 kts 357°
2026-05-05 10:41 55.62811 12.63301 22 ft 4 kts 356°
2026-05-05 10:41 55.62787 12.63303 23 ft 2 kts 356°
2026-05-05 10:42 55.62755 12.63269 20 ft 4 kts 107°
2026-05-05 10:42 55.62764 12.63231 22 ft 2 kts 123°
2026-05-05 10:42 55.62765 12.63229 22 ft 0 kts 123°
2026-05-05 10:45 55.62752 12.63267 20 ft 7 kts 122°
2026-05-05 10:45 55.62714 12.63374 21 ft 13 kts 121°
2026-05-05 10:45 55.62678 12.63539 20 ft 16 kts 94°
2026-05-05 10:45 55.62671 12.63749 20 ft 18 kts 98°
2026-05-05 10:46 55.62616 12.63960 20 ft 20 kts 123°
2026-05-05 10:46 55.62534 12.64181 20 ft 23 kts 124°
2026-05-05 10:46 55.62437 12.64414 20 ft 25 kts 127°
2026-05-05 10:46 55.62340 12.64668 20 ft 26 kts 122°
2026-05-05 10:47 55.62241 12.64935 20 ft 24 kts 123°
2026-05-05 10:47 55.62173 12.65110 22 ft 14 kts 142°
2026-05-05 10:47 55.62100 12.65058 21 ft 11 kts 228°
2026-05-05 10:47 55.62033 12.64974 22 ft 17 kts 212°
2026-05-05 10:48 55.61916 12.64825 20 ft 23 kts 206°
2026-05-05 10:48 55.61747 12.64646 20 ft 33 kts 213°
2026-05-05 10:48 55.61533 12.64401 20 ft 37 kts 214°
2026-05-05 10:48 55.61353 12.64196 21 ft 30 kts 213°
2026-05-05 10:49 55.61184 12.64000 20 ft 28 kts 212°
2026-05-05 10:49 55.61021 12.63815 21 ft 27 kts 208°
2026-05-05 10:49 55.60881 12.63653 21 ft 22 kts 214°
2026-05-05 10:49 55.60785 12.63607 22 ft 11 kts 141°
2026-05-05 10:50 55.60734 12.63706 22 ft 11 kts 131°
2026-05-05 10:50 55.60686 12.63805 21 ft 10 kts 130°
2026-05-05 10:50 55.60688 12.63884 22 ft 3 kts 50°
2026-05-05 10:50 55.60713 12.63925 24 ft 9 kts 42°
2026-05-05 10:51 55.60786 12.64037 23 ft 26 kts 41°
2026-05-05 10:51 55.61089 12.64504 20 ft 88 kts 40°
2026-05-05 10:51 55.61677 12.65395 72 ft 130 kts 40°
2026-05-05 10:51 55.62398 12.66557 432 ft 146 kts 41°
2026-05-05 10:52 55.63203 12.67762 854 ft 161 kts 38°
2026-05-05 10:52 55.64092 12.69087 1284 ft 168 kts 39°
2026-05-05 10:52 55.64985 12.70460 1694 ft 172 kts 39°
2026-05-05 10:52 55.65990 12.71532 2059 ft 170 kts
2026-05-05 10:53 55.67140 12.71261 2417 ft 169 kts 347°
2026-05-05 10:53 55.68300 12.70854 2816 ft 171 kts 348°
2026-05-05 10:53 55.69482 12.70487 3255 ft 171 kts 349°
2026-05-05 10:53 55.70668 12.70159 3663 ft 173 kts 350°
2026-05-05 10:54 55.71867 12.69900 4059 ft 175 kts 351°
2026-05-05 10:54 55.73071 12.69682 4430 ft 177 kts 352°
2026-05-05 10:54 55.74199 12.68935 4832 ft 172 kts 311°
2026-05-05 10:54 55.74568 12.67022 5201 ft 172 kts 262°
2026-05-05 10:55 55.74180 12.65018 5550 ft 173 kts 251°
2026-05-05 10:55 55.73794 12.63000 5993 ft 172 kts 254°
2026-05-05 10:55 55.73418 12.60976 6407 ft 172 kts 253°
2026-05-05 10:55 55.73074 12.58947 6782 ft 172 kts 257°
2026-05-05 10:56 55.72835 12.56865 7170 ft 172 kts 262°
2026-05-05 10:56 55.72701 12.54756 7558 ft 172 kts 266°
2026-05-05 10:56 55.72658 12.52635 7938 ft 172 kts 269°
2026-05-05 10:56 55.72679 12.50506 8329 ft 173 kts 271°
2026-05-05 10:57 55.72730 12.48377 8722 ft 173 kts 271°
2026-05-05 10:57 55.72779 12.46248 9116 ft 173 kts 270°
2026-05-05 10:57 55.72826 12.44104 9497 ft 174 kts 270°
2026-05-05 10:57 55.72870 12.41955 9857 ft 175 kts 270°
2026-05-05 10:58 55.72913 12.39790 10178 ft 176 kts 270°
2026-05-05 10:58 55.72952 12.37627 10516 ft 176 kts 270°
2026-05-05 10:58 55.72993 12.35448 10854 ft 176 kts 270°
2026-05-05 10:58 55.73033 12.33267 11187 ft 177 kts 270°
2026-05-05 10:59 55.73073 12.31079 11520 ft 177 kts 270°
2026-05-05 10:59 55.73113 12.28917 11842 ft 178 kts 270°
2026-05-05 10:59 55.73153 12.26718 12172 ft 179 kts 269°
2026-05-05 10:59 55.73193 12.24508 12498 ft 179 kts 269°
2026-05-05 11:00 55.73234 12.22297 12827 ft 180 kts 270°
2026-05-05 11:00 55.73288 12.20077 13157 ft 180 kts 269°
2026-05-05 11:00 55.73337 12.17852 13480 ft 181 kts 269°
2026-05-05 11:00 55.73383 12.15623 13792 ft 181 kts 269°
2026-05-05 11:01 55.73425 12.13382 14070 ft 182 kts 269°
2026-05-05 11:01 55.73463 12.11127 14344 ft 183 kts 269°
2026-05-05 11:01 55.73501 12.08868 14615 ft 184 kts 269°
2026-05-05 11:01 55.73538 12.06602 14884 ft 184 kts 269°
2026-05-05 11:02 55.73576 12.04321 15153 ft 185 kts 269°
2026-05-05 11:02 55.73612 12.02036 15410 ft 186 kts 269°
2026-05-05 11:02 55.73649 11.99739 15681 ft 186 kts 269°
2026-05-05 11:02 55.73686 11.97418 15847 ft 191 kts 269°
2026-05-05 11:03 55.73724 11.94999 15913 ft 201 kts 269°
2026-05-05 11:03 55.73762 11.92462 15945 ft 210 kts 269°
2026-05-05 11:03 55.73802 11.89805 15954 ft 219 kts 269°
2026-05-05 11:03 55.73841 11.87058 15961 ft 226 kts 269°
2026-05-05 11:04 55.73881 11.84222 15970 ft 233 kts 269°
2026-05-05 11:04 55.73920 11.81320 15961 ft 238 kts 269°
2026-05-05 11:04 55.73960 11.78399 15958 ft 242 kts 269°
2026-05-05 11:04 55.74003 11.75395 15956 ft 245 kts 269°
2026-05-05 11:05 55.74044 11.72358 15956 ft 248 kts 269°
2026-05-05 11:05 55.74087 11.69288 15958 ft 250 kts 269°
2026-05-05 11:05 55.74128 11.66198 15962 ft 252 kts 269°
2026-05-05 11:05 55.74170 11.63080 15960 ft 253 kts 269°
2026-05-05 11:06 55.74210 11.59953 15962 ft 254 kts 269°
2026-05-05 11:06 55.74249 11.56811 15962 ft 255 kts 269°
2026-05-05 11:06 55.74287 11.53654 15962 ft 255 kts 269°
2026-05-05 11:06 55.74326 11.50500 15965 ft 256 kts 269°
2026-05-05 11:07 55.74363 11.47332 15962 ft 256 kts 269°
2026-05-05 11:07 55.74399 11.44208 15961 ft 257 kts 269°
2026-05-05 11:07 55.74436 11.41035 15964 ft 257 kts 269°
2026-05-05 11:07 55.74470 11.37867 15963 ft 257 kts 269°
2026-05-05 11:08 55.74506 11.34699 15963 ft 257 kts 269°
2026-05-05 11:08 55.74529 11.32545 15965 ft 257 kts 269°
2026-05-05 11:08 55.74561 11.29372 15962 ft 258 kts 269°
2026-05-05 11:08 55.74591 11.26186 15965 ft 258 kts 269°
2026-05-05 11:09 55.74623 11.23049 15966 ft 258 kts 269°
2026-05-05 11:09 55.74654 11.19866 15966 ft 258 kts 269°
2026-05-05 11:09 55.74684 11.16691 15969 ft 258 kts 269°
2026-05-05 11:09 55.74714 11.13509 15966 ft 258 kts 269°
2026-05-05 11:10 55.74741 11.10324 15966 ft 258 kts 269°
2026-05-05 11:10 55.74767 11.07141 15964 ft 258 kts 269°
2026-05-05 11:10 55.74795 11.03957 15964 ft 258 kts 269°
2026-05-05 11:10 55.74820 11.00780 15965 ft 257 kts 269°
2026-05-05 11:11 55.74846 10.97604 15964 ft 257 kts 269°
2026-05-05 11:11 55.74871 10.94427 15966 ft 258 kts 269°
2026-05-05 11:11 55.74893 10.91246 15965 ft 258 kts 269°
2026-05-05 11:11 55.74914 10.88065 15961 ft 258 kts 269°
2026-05-05 11:12 55.74936 10.84885 15962 ft 258 kts 269°
2026-05-05 11:12 55.74957 10.81708 15965 ft 257 kts 269°
2026-05-05 11:12 55.74977 10.78527 15966 ft 257 kts 269°
2026-05-05 11:12 55.74996 10.75357 15966 ft 257 kts 269°
2026-05-05 11:13 55.75014 10.72215 15969 ft 257 kts 269°
2026-05-05 11:13 55.75031 10.69045 15968 ft 257 kts 269°
2026-05-05 11:13 55.75048 10.65867 15968 ft 257 kts 269°
2026-05-05 11:13 55.75064 10.62695 15969 ft 257 kts 269°
2026-05-05 11:14 55.75079 10.59512 15968 ft 257 kts 269°
2026-05-05 11:14 55.75094 10.56339 15967 ft 257 kts 269°
2026-05-05 11:14 55.75107 10.53164 15966 ft 257 kts 269°
2026-05-05 11:14 55.75119 10.49988 15966 ft 257 kts 269°
2026-05-05 11:15 55.75130 10.46817 15965 ft 257 kts 269°
2026-05-05 11:15 55.75142 10.43640 15965 ft 257 kts 269°
2026-05-05 11:15 55.75152 10.40469 15965 ft 257 kts 269°
2026-05-05 11:15 55.75162 10.37290 15960 ft 257 kts 269°
2026-05-05 11:16 55.75169 10.34119 15958 ft 257 kts 269°
2026-05-05 11:16 55.75178 10.30930 15826 ft 262 kts 269°
2026-05-05 11:16 55.75194 10.27697 15198 ft 263 kts 269°
2026-05-05 11:16 55.75217 10.24437 14512 ft 264 kts 269°
2026-05-05 11:17 55.75225 10.21168 13835 ft 265 kts 269°
2026-05-05 11:17 55.75230 10.17913 13154 ft 262 kts 269°
2026-05-05 11:17 55.75234 10.14697 12527 ft 259 kts 269°
2026-05-05 11:17 55.75235 10.11517 11903 ft 256 kts 269°
2026-05-05 11:18 55.75238 10.08378 11292 ft 253 kts 269°
2026-05-05 11:18 55.75239 10.05313 10701 ft 251 kts 269°
2026-05-05 11:18 55.75239 10.02225 10114 ft 249 kts 269°
2026-05-05 11:18 55.75236 9.99158 9504 ft 248 kts 270°
2026-05-05 11:19 55.75233 9.96110 8862 ft 247 kts 270°
2026-05-05 11:19 55.75228 9.93054 8234 ft 246 kts 271°
2026-05-05 11:19 55.75226 9.90011 7608 ft 246 kts 271°
2026-05-05 11:19 55.75214 9.86969 7006 ft 247 kts 271°
2026-05-05 11:20 55.75193 9.83918 6410 ft 248 kts 271°
2026-05-05 11:20 55.75171 9.80850 5789 ft 248 kts 271°
2026-05-05 11:20 55.75154 9.77779 5155 ft 249 kts 271°
2026-05-05 11:20 55.75145 9.74703 4534 ft 249 kts 271°
2026-05-05 11:21 55.75061 9.71640 3944 ft 246 kts 270°
2026-05-05 11:21 55.75064 9.68627 3441 ft 237 kts 273°
2026-05-05 11:21 55.75112 9.65892 3198 ft 206 kts 274°
2026-05-05 11:21 55.75142 9.63506 3087 ft 181 kts 274°
2026-05-05 11:22 55.75165 9.61310 3045 ft 177 kts 274°
2026-05-05 11:22 55.75195 9.59146 3025 ft 173 kts 274°
2026-05-05 11:22 55.75219 9.57027 3001 ft 171 kts 274°
2026-05-05 11:22 55.75235 9.54883 3018 ft 180 kts 273°
2026-05-05 11:23 55.75228 9.52606 2998 ft 188 kts 271°
2026-05-05 11:23 55.75167 9.50259 3008 ft 193 kts 269°
2026-05-05 11:23 55.75058 9.47854 2995 ft 198 kts 268°
2026-05-05 11:23 55.74956 9.45403 3003 ft 200 kts 268°
2026-05-05 11:24 55.74861 9.42943 2997 ft 201 kts 270°
2026-05-05 11:24 55.74812 9.40409 2786 ft 206 kts 270°
2026-05-05 11:24 55.74752 9.37995 2500 ft 186 kts 268°
2026-05-05 11:24 55.74660 9.35815 2277 ft 168 kts 268°
2026-05-05 11:25 55.74593 9.33839 2053 ft 154 kts 270°
2026-05-05 11:25 55.74543 9.32011 1851 ft 145 kts 270°
2026-05-05 11:25 55.74503 9.30257 1672 ft 137 kts 270°
2026-05-05 11:25 55.74449 9.28629 1500 ft 129 kts 268°
2026-05-05 11:26 55.74389 9.27062 1325 ft 125 kts 268°
2026-05-05 11:26 55.74347 9.25526 1157 ft 123 kts 271°
2026-05-05 11:26 55.74291 9.24050 1001 ft 121 kts 269°
2026-05-05 11:26 55.74249 9.22571 794 ft 119 kts 267°
2026-05-05 11:27 55.74205 9.21100 602 ft 119 kts 268°
2026-05-05 11:27 55.74164 9.19638 435 ft 118 kts 267°
2026-05-05 11:27 55.74125 9.18183 281 ft 117 kts 267°
2026-05-05 11:27 55.74081 9.16775 217 ft 111 kts 267°
2026-05-05 11:28 55.74047 9.15588 213 ft 87 kts 266°
2026-05-05 11:28 55.74019 9.14673 216 ft 50 kts 267°
2026-05-05 11:28 55.74073 9.14500 213 ft 13 kts 357°
2026-05-05 11:28 55.74157 9.14486 216 ft 12 kts 356°
2026-05-05 11:29 55.74235 9.14478 214 ft 11 kts 357°
2026-05-05 11:29 55.74333 9.14470 213 ft 14 kts 357°
2026-05-05 11:29 55.74423 9.14447 219 ft 12 kts 327°
2026-05-05 11:29 55.74454 9.14419 216 ft 2 kts
2026-05-05 11:30 55.74487 9.14417 217 ft 5 kts 356°
2026-05-05 11:30 55.74519 9.14413 213 ft 4 kts 357°
2026-05-05 11:30 55.74523 9.14413 213 ft 0 kts 357°